Location: Unspecified
(0.0000°N, 0.0000°E)
Time: 09:38:21
(UTC+00:00)

Vanguard 2 Rocket - All Passes

Search period start: 22 September 2017 00:00
Search period end: 02 October 2017 00:00
Orbit: 554 x 3328 km, 32.9° (Epoch: 21 September)

Date Brightness Start Highest point End Pass type
(mag) Time Alt. Az. Time Alt. Az. Time Alt. Az.
22 Sep - 01:03:19 10° NNW 01:10:17 16° NNE 01:15:30 10° NE night (unlit)
22 Sep - 03:18:45 10° NW 03:26:55 44° NNE 03:31:53 10° E visible
22 Sep - 05:35:40 10° W 05:39:56 23° SW 05:43:17 10° SSE daylight
22 Sep - 12:26:27 10° SSE 12:29:40 12° SE 12:33:25 10° SE daylight
22 Sep - 14:34:28 10° SW 14:45:14 50° SE 15:02:33 10° ENE daylight
22 Sep - 16:47:53 10° WSW 17:02:29 69° NW 17:22:55 10° NE daylight
22 Sep - 19:07:05 10° W 19:22:57 32° NNW 19:39:32 10° NNE visible
22 Sep - 21:35:26 10° NW 21:46:10 17° NNW 21:55:25 10° NNE visible
23 Sep - 00:01:10 10° NNW 00:08:41 15° N 00:14:36 10° NE visible
23 Sep - 02:17:51 10° NW 02:26:53 32° NNE 02:32:31 10° E visible
23 Sep - 04:34:15 10° WNW 04:41:00 51° SW 04:45:24 10° SE visible
23 Sep - 13:36:05 10° SSW 13:44:45 33° SE 13:58:19 10° E daylight
23 Sep - 15:47:57 10° SW 16:00:44 88° NW 16:20:45 10° NE daylight
23 Sep - 18:04:35 10° W 18:20:04 41° NNW 18:38:31 10° NE visible
23 Sep - 20:29:29 10° WNW 20:42:40 20° NNW 20:54:47 10° NNE visible
23 Sep - 22:57:47 10° NNW 23:06:23 15° N 23:13:21 10° NE visible
24 Sep - 01:16:34 10° NNW 01:26:17 25° NNE 01:32:42 10° ENE night (unlit)
24 Sep - 03:33:01 10° NW 03:41:51 85° NE 03:46:59 10° ESE visible
24 Sep - 12:38:32 10° S 12:44:36 20° SE 12:53:04 10° E daylight
24 Sep - 14:48:41 10° SW 14:59:36 71° SE 15:17:58 10° ENE daylight
24 Sep - 17:03:17 10° WSW 17:17:32 52° NNW 17:37:02 10° NE daylight
24 Sep - 19:24:43 10° WNW 19:39:09 25° NNW 19:53:51 10° NNE visible
24 Sep - 21:53:10 10° NW 22:03:21 16° N 22:11:56 10° NNE visible
25 Sep - 00:14:47 10° NNW 00:25:04 22° NNE 00:32:17 10° ENE visible
25 Sep - 02:31:43 10° NW 02:42:11 55° NNE 02:48:08 10° ESE visible
25 Sep - 04:50:03 10° W 04:55:24 24° SW 04:59:16 10° SSE visible
25 Sep - 13:50:00 10° SSW 13:59:06 49° SE 14:14:34 10° ENE daylight
25 Sep - 16:02:54 10° WSW 16:15:32 65° NNW 16:35:06 10° NE daylight
25 Sep - 18:21:23 10° W 18:35:53 31° NNW 18:52:37 10° NNE visible
25 Sep - 20:47:55 10° NW 20:59:46 18° N 21:10:25 10° NNE visible
25 Sep - 23:12:20 10° NNW 23:23:08 19° N 23:31:15 10° NE visible
26 Sep - 01:30:12 10° NW 01:41:56 40° NNE 01:48:52 10° E night (unlit)
26 Sep - 03:47:59 10° WNW 03:56:25 50° SW 04:01:28 10° SE visible
26 Sep - 12:51:53 10° SSW 12:59:07 31° SE 13:10:31 10° E daylight
26 Sep - 15:03:17 10° WSW 15:14:09 84° NW 15:32:43 10° NE daylight
26 Sep - 17:19:21 10° W 17:33:02 38° NNW 17:51:03 10° NE daylight
26 Sep - 19:42:57 10° NW 19:55:57 20° NNW 20:08:48 10° NNE visible
26 Sep - 22:09:08 10° NNW 22:20:27 18° N 22:29:34 10° NE visible
27 Sep - 00:28:25 10° NW 00:41:03 32° NNE 00:49:02 10° E night (unlit)
27 Sep - 02:46:07 10° NW 02:57:05 87° SW 03:03:06 10° SE visible
27 Sep - 05:07:44 10° WSW 05:09:50 12° SW 05:11:41 10° SSW visible
27 Sep - 11:54:44 10° S 11:59:23 17° SE 12:05:32 10° ESE daylight
27 Sep - 14:04:14 10° SW 14:13:28 72° SE 14:29:55 10° ENE daylight
27 Sep - 16:18:24 10° W 16:30:45 48° NNW 16:49:10 10° NE daylight
27 Sep - 18:38:57 10° WNW 18:52:17 24° NNW 19:07:03 10° NNE visible
27 Sep - 21:05:14 10° NW 21:17:04 18° N 21:27:23 10° NE visible
27 Sep - 23:26:18 10° NNW 23:39:29 26° NNE 23:48:33 10° ENE visible
28 Sep - 01:44:13 10° NW 01:57:11 64° NNE 02:04:17 10° ESE visible
28 Sep - 04:03:51 10° W 04:10:44 27° SW 04:15:21 10° SSE visible
28 Sep - 13:05:45 10° SSW 13:13:24 48° SE 13:26:43 10° ENE daylight
28 Sep - 15:18:18 10° WSW 15:29:04 60° NNW 15:47:00 10° NE daylight
28 Sep - 17:36:10 10° WNW 17:49:03 29° NNW 18:05:08 10° NNE daylight
28 Sep - 20:01:00 10° NW 20:13:12 18° N 20:24:53 10° NE visible
28 Sep - 22:23:50 10° NNW 22:37:13 23° NNE 22:47:18 10° ENE visible
29 Sep - 00:42:13 10° NW 00:56:37 47° NNE 01:04:58 10° E night (unlit)
29 Sep - 03:01:10 10° WNW 03:11:33 51° SW 03:17:32 10° SE visible
29 Sep - 12:07:51 10° SSW 12:13:49 28° SE 12:23:03 10° E daylight
29 Sep - 14:18:53 10° WSW 14:28:04 79° NW 14:44:37 10° NE daylight
29 Sep - 16:34:33 10° W 16:46:24 35° NNW 17:03:07 10° NE daylight
29 Sep - 18:56:59 10° NW 19:09:15 20° N 19:22:16 10° NNE visible
29 Sep - 21:21:01 10° NNW 21:34:12 21° N 21:45:10 10° NE visible
29 Sep - 23:40:08 10° NW 23:55:25 38° NNE 00:05:04 10° E visible
30 Sep - 01:58:42 10° WNW 02:11:58 82° SW 02:19:08 10° SE visible
30 Sep - 04:21:14 10° WSW 04:25:06 14° SW 04:28:14 10° S visible
30 Sep - 11:11:11 10° SSE 11:14:24 14° SE 11:18:22 10° ESE daylight
30 Sep - 13:20:01 10° SW 13:27:46 75° SE 13:42:00 10° ENE daylight
30 Sep - 15:33:55 10° W 15:44:24 43° NNW 16:01:00 10° NE daylight
30 Sep - 17:53:44 10° WNW 18:05:37 22° NNW 18:19:41 10° NNE visible
30 Sep - 20:17:54 10° NW 20:30:34 19° N 20:42:14 10° NE visible
30 Sep - 22:37:57 10° NW 22:53:30 31° NNE 23:04:24 10° ENE visible
01 Oct - 00:56:20 10° NW 01:11:46 72° NNE 01:20:16 10° ESE night (unlit)
01 Oct - 03:17:06 10° W 03:25:50 29° SW 03:31:26 10° SSE visible
01 Oct - 12:21:40 10° SSW 12:28:05 47° SE 12:39:12 10° ENE daylight
01 Oct - 14:34:02 10° WSW 14:43:06 54° NNW 14:58:50 10° NE daylight
01 Oct - 16:51:29 10° WNW 17:02:33 26° NNW 17:17:12 10° NNE daylight
01 Oct - 19:14:40 10° NW 19:26:35 19° N 19:38:45 10° NE visible
01 Oct - 21:35:42 10° NNW 21:50:54 26° NNE 22:02:50 10° ENE visible
